EHI
0 0 1 2 2 3 3 1 0 0 0 0 0 0 0 0 0 0 0 0 0 0 0 0 0 0 0 0 0 0 0 0 0 0 0 0 0 0 0 0 0 0 0
0 0 0 1 1 2 2 1 0 0 0 0 0 0 0 0 0 0 0 0 0 0 0 0 0 0 0 0 0 0 0 0 0 0 0 0 0 0 0 0 0 0 0
0 0 0 0 0 1 1 1 0 0 0 0 0 0 0 0 0 0 0 0 0 0 0 0 0 0 0 0 0 0 0 0 0 0 0 0 0 0 0 0 0 0 0
0 0 0 0 0 0 0 0 0 0 0 0 0 0 0 0 0 0 0 0 0 0 0 0 0 0 0 0 0 0 0 0 0 0 0 0 0 0 0 0 0 0 0
0 0 0 0 0 0 0 0 0 0 0 0 0 0 0 0 0 0 0 0 0 0 0 0 0 0 0 0 0 0 0 0 0 0 0 0 0 0 0 0 0 0 0
0 0 0 0 0 0 0 0 0 0 0 0 0 0 0 0 0 0 0 0 0 0 0 0 0 0 0 0 0 0 0 0 0 0 0 0 0 0 0 0 0 0 0
0 0 0 0 0 0 0 0 0 0 0 0 0 0 0 0 0 0 0 0 0 0 0 0 0 0 0 0 0 0 0 0 0 0 0 0 0 0 0 0 0 0 0
0 0 0 0 0 0 0 0 0 0 0 0 0 0 0 0 0 0 0 0 0 0 0 0 0 0 0 0 0 0 0 0 0 0 0 0 0 0 0 0 0 0 0
0 0 0 0 0 0 0 0 0 0 0 0 0 0 0 0 0 0 0 0 0 0 0 0 0 0 0 0 0 0 0 0 0 0 0 0 0 0 0 0 0 0 0
0 0 0 0 0 0 0 0 0 0 0 0 0 0 0 0 0 0 0 0 0 0 0 0 0 0 0 0 0 0 0 0 0 0 0 0 0 0 0 0 0 0 0
0 0 0 0 0 0 0 0 0 0 0 0 0 0 0 0 0 0 0 0 0 0 0 0 0 0 0 0 0 0 0 0 0 0 0 0 0 0 0 0 0 0 0
0 0 0 0 0 0 0 0 0 0 0 0 0 0 0 0 0 0 0 0 0 0 0 0 0 0 0 0 0 0 0 0 0 0 0 0 0 0 0 0 0 0 0
0 0 0 0 0 0 0 0 0 0 0 0 0 0 0 0 0 0 0 0 0 0 0 0 0 0 0 0 0 0 0 0 0 0 0 0 0 0 0 0 0 0 0
0 0 0 0 0 0 0 0 0 0 0 0 0 0 0 0 0 0 0 0 0 0 0 0 0 0 0 0 0 0 0 0 0 0 0 0 0 0 0 0 0 0 0
0 0 0 0 0 0 0 0 0 0 0 0 0 0 0 0 0 0 0 0 0 0 0 0 0 0 0 0 0 0 0 0 0 0 0 0 0 0 0 0 0 0 0
0 0 0 0 0 0 0 0 0 0 0 0 0 0 0 0 0 0 0 0 0 0 0 0 0 0 0 0 0 0 0 0 0 0 0 0 0 0 0 0 0 0 0
0 0 0 0 0 0 0 0 0 0 0 0 0 0 0 0 0 0 0 0 0 0 0 0 0 0 0 0 0 0 0 0 0 0 0 0 0 0 0 0 0 0 0
0 0 0 0 0 0 0 0 0 0 0 0 0 0 0 0 0 0 0 0 0 0 0 0 0 0 0 0 0 0 0 0 0 0 0 0 0 0 0 0 0 0 0
0 0 0 0 0 0 0 0 0 0 0 0 0 0 0 0 0 0 0 0 0 0 0 0 0 0 0 0 0 0 0 0 0 0 0 0 0 0 0 0 0 0 0
0 0 0 0 0 0 0 0 0 0 0 0 0 0 0 0 0 0 0 0 0 0 0 0 0 0 0 0 0 0 0 0 0 0 0 0 0 0 0 0 0 0 0
0 0 0 0 0 0 0 0 0 0 0 0 0 0 0 0 0 0 0 0 0 0 0 0 0 0 0 0 0 0 0 0 0 0 0 0 0 0 0 0 0 0 0
0 0 0 0 0 0 0 0 0 0 0 0 0 0 0 0 0 0 0 0 0 0 0 0 0 0 0 0 0 0 0 0 0 0 0 0 0 0 0 0 0 0 0
0 0 0 0 0 0 0 0 0 0 0 0 0 0 0 0 0 0 0 0 0 0 0 0 0 0 0 0 0 0 0 0 0 0 0 0 0 0 0 0 0 0 0
0 0 0 0 0 0 0 0 0 0 0 0 0 0 0 0 0 0 0 0 0 0 0 0 0 0 0 0 0 0 0 0 0 0 0 0 0 0 0 0 0 0 0
0 0 0 0 0 0 0 0 0 0 0 0 0 0 0 0 0 0 0 0 0 0 0 0 0 0 0 0 0 0 0 0 0 0 0 0 0 0 0 0 0 0 0
0 0 0 0 0 0 0 0 0 0 0 0 0 0 0 0 0 0 0 0 0 0 0 0 0 0 0 0 0 0 0 0 0 0 0 0 0 0 0 0 0 0 0
Wind_Speed
0 0 0 0 0 0 1 1 1 2 2 2 2 2 2 2 2 2 3 5 4 4 4 4 4 4 5 5 5 6 7 7 7 7 7 7 7 7 6 6 6 6 6
1 1 1 1 1 1 1 1 1 1 1 1 2 2 2 2 1 2 2 4 4 4 3 3 4 4 4 4 5 6 7 7 7 6 6 7 7 6 6 5 5 5 5
2 1 1 1 1 1 1 1 2 1 2 2 2 2 1 1 1 2 2 2 3 4 4 3 4 3 3 3 4 5 6 6 6 6 6 6 6 5 5 5 5 5 5
2 1 2 1 1 1 1 1 2 2 2 2 1 1 1 1 1 2 2 2 2 2 3 4 3 3 2 2 3 4 5 6 6 5 5 5 5 5 5 5 4 4 4
2 2 2 2 2 2 1 1 1 2 2 2 2 1 1 1 1 2 2 2 2 1 2 3 3 3 2 1 2 3 4 5 6 6 5 5 5 5 5 5 4 4 4
2 2 2 2 3 2 2 2 2 1 2 2 2 2 1 1 1 1 2 2 2 1 1 1 1 1 1 1 1 3 4 5 6 6 6 5 5 5 5 5 4 4 3
2 2 2 2 3 3 3 3 2 3 2 2 2 2 2 2 1 1 1 1 2 1 1 1 0 0 1 1 1 2 3 4 6 6 6 6 6 5 5 5 5 4 4
2 2 2 2 3 3 4 4 4 3 2 3 3 3 3 3 2 2 1 1 1 1 1 1 1 1 1 0 1 2 2 3 4 5 5 6 5 5 5 5 5 4 5
2 2 3 3 3 3 4 5 5 5 3 3 3 3 3 3 2 3 2 2 2 2 2 1 1 1 1 1 1 2 1 1 4 5 5 5 5 5 5 5 5 5 4
3 3 3 3 4 4 4 5 5 4 5 4 3 2 2 1 2 3 3 3 2 2 2 1 1 1 1 1 1 2 1 1 2 3 4 4 5 5 5 5 5 5 5
3 3 3 3 4 4 4 5 5 5 5 5 4 3 3 2 2 2 3 3 3 2 2 2 2 2 2 1 1 1 1 1 2 3 3 4 4 4 4 4 5 5 5
3 3 3 4 4 4 4 4 5 6 5 5 4 4 4 3 4 3 3 3 3 2 3 2 2 2 2 2 1 1 1 2 2 2 3 3 3 3 3 3 3 4 5
3 4 4 4 4 4 4 4 4 5 6 6 5 5 5 4 3 3 3 2 2 2 2 3 2 2 2 2 1 1 2 2 2 2 3 2 2 2 2 3 4 4 4
4 5 5 5 5 5 4 4 4 5 5 6 6 6 4 4 3 4 4 3 3 2 3 4 2 3 2 2 1 2 2 2 2 2 1 1 1 1 1 2 2 3 3
4 5 6 6 5 5 5 5 5 5 5 6 6 6 5 4 4 4 4 5 4 4 4 4 3 3 2 2 2 3 3 2 2 2 1 1 0 1 1 2 2 2 3
5 5 6 6 6 5 6 6 6 6 6 6 5 6 6 5 4 4 4 4 4 4 3 2 2 2 3 2 2 2 2 2 2 2 2 1 1 1 1 2 2 2 2
6 6 6 6 6 6 6 6 6 6 7 7 6 7 8 6 5 5 4 4 4 4 3 2 2 2 4 4 3 2 2 2 2 3 3 2 2 2 2 2 2 2 3
6 6 6 6 6 6 6 7 7 7 7 7 7 7 8 6 7 6 5 6 5 5 4 4 3 3 4 4 3 3 2 2 2 3 3 3 3 3 3 3 3 3 3
6 6 6 6 6 7 7 7 7 7 8 8 7 8 8 8 8 6 7 6 5 4 4 4 3 3 2 3 3 2 2 2 2 2 3 4 4 4 4 4 4 4 4
6 6 6 6 6 7 7 7 7 7 7 8 8 8 8 8 9 8 6 7 5 5 5 4 4 3 3 3 3 3 3 3 2 2 3 3 3 4 4 4 4 4 4
6 6 6 6 6 6 5 6 7 7 7 7 7 8 7 8 8 7 6 6 6 5 5 5 5 4 4 4 4 4 4 2 2 2 2 2 3 3 3 5 5 5 5
6 6 6 6 6 5 7 9 7 6 7 7 7 6 6 7 9 9 9 9 8 8 7 6 5 6 6 5 4 4 4 4 3 3 3 3 3 3 3 3 3 5 5
6 6 6 6 6 7 8 9 8 6 6 6 6 5 4 5 7 7 8 8 8 9 9 8 8 8 7 6 6 6 5 5 4 3 3 4 3 4 3 3 4 5 6
6 6 6 6 6 6 7 8 7 5 5 5 5 5 5 5 6 6 6 6 6 7 7 6 7 7 6 6 6 6 5 4 2 2 3 4 3 4 3 3 4 5 6
6 6 6 6 7 6 7 6 6 4 4 4 4 4 5 5 6 7 7 6 6 4 4 5 5 5 5 5 5 4 4 4 3 3 3 3 3 2 3 3 3 5 6
6 6 6 6 6 6 6 6 5 3 3 3 3 4 6 6 6 7 7 7 7 5 4 3 3 4 4 5 7 6 5 5 3 3 3 3 2 2 3 3 3 3 4
Wind_Direction
205 210 191 169 188 170 185 190 173 153 148 135 135 147 147 145 149 136 108 87 80 88 100 112 118 123 129 137 139 140 136 133 129 124 119 118 115 110 106 103 103 107 107
225 211 205 204 199 210 190 181 179 167 150 138 137 144 148 144 151 145 130 113 84 70 89 108 120 125 129 137 141 143 142 139 138 138 133 127 120 116 113 112 108 109 107
240 224 210 199 213 205 191 182 176 172 152 147 145 145 139 140 151 148 146 142 124 92 78 91 99 114 122 135 142 145 147 146 146 146 143 137 131 126 123 117 114 114 112
262 236 217 203 211 217 202 190 191 180 172 162 152 144 144 139 144 152 149 142 127 124 99 73 70 81 101 126 139 149 155 160 158 158 156 153 148 141 135 128 123 122 118
273 246 227 209 203 207 206 204 202 193 178 164 154 144 143 144 150 152 142 132 119 112 111 90 69 54 56 105 139 158 166 171 169 170 167 160 158 153 150 145 139 135 132
274 258 235 221 210 205 201 205 198 195 183 164 149 138 127 133 156 143 145 138 131 130 132 124 130 93 76 104 165 182 173 175 176 176 173 170 167 163 165 167 166 164 159
283 262 247 230 224 213 206 199 195 189 183 171 160 150 140 142 158 150 162 165 152 151 162 162 165 177 155 128 139 172 174 178 181 179 180 178 177 176 178 185 190 187 183
290 272 254 238 230 222 208 200 198 199 194 195 192 178 176 178 177 174 179 184 187 180 183 199 200 187 207 183 91 100 147 170 165 174 178 178 180 185 187 192 197 192 190
276 271 260 245 232 229 217 208 207 209 203 203 215 209 197 192 166 170 190 200 208 204 199 209 223 216 209 196 176 120 104 169 177 181 186 187 188 188 190 189 190 195 197
275 267 261 251 237 232 226 217 215 218 210 203 202 230 253 177 185 171 184 198 211 217 216 214 211 212 213 201 143 96 97 130 167 176 187 185 188 192 195 203 207 206 205
277 276 266 255 243 238 233 230 220 221 218 215 201 190 191 195 212 205 191 190 202 209 219 224 220 218 209 207 192 136 126 155 195 190 188 179 180 184 198 211 214 213 214
279 274 274 264 252 243 236 235 230 223 224 223 217 204 201 195 195 207 209 203 209 203 216 221 223 218 210 208 185 129 169 181 193 195 189 189 190 193 206 214 216 219 221
282 280 275 269 263 250 240 237 234 226 222 223 224 221 217 217 203 207 203 199 213 208 210 215 217 218 210 208 179 159 163 160 154 165 178 192 194 189 204 220 230 233 224
279 280 275 266 263 258 245 236 237 233 225 225 226 223 217 214 212 208 201 186 199 209 212 211 201 216 208 202 167 186 174 165 161 163 180 202 213 194 198 227 232 227 229
284 279 278 271 263 260 252 240 235 234 232 228 226 223 219 212 210 213 208 203 203 212 220 203 196 200 208 205 176 196 196 166 181 188 179 171 285 260 237 229 235 233 236
286 279 277 275 265 258 253 245 241 236 234 231 226 226 222 211 208 208 209 212 218 223 226 203 206 199 201 204 194 210 207 185 196 190 189 198 212 241 246 233 238 230 222
286 278 274 273 268 260 255 247 242 238 235 234 228 226 226 215 209 207 207 210 212 213 218 237 228 200 203 202 197 210 219 217 197 190 196 199 211 224 233 235 237 236 234
288 282 275 272 268 261 255 249 244 238 236 235 232 229 227 215 214 210 208 210 210 210 210 217 220 209 214 201 200 205 221 225 217 187 200 212 221 228 231 226 228 238 243
287 284 277 269 269 264 255 250 246 240 239 239 237 234 231 219 215 211 210 212 209 207 208 205 214 212 213 198 196 205 216 221 224 196 206 220 223 227 233 230 230 236 233
285 283 277 271 267 266 259 253 246 240 239 239 238 236 234 227 219 213 210 212 207 204 200 200 204 207 208 202 200 201 209 213 222 225 220 223 219 226 231 230 233 234 234
284 282 276 272 269 266 262 261 251 243 240 239 237 235 234 232 226 217 212 208 202 204 201 201 203 206 205 198 204 204 209 211 239 238 220 221 221 227 223 220 223 227 233
285 281 277 275 272 269 271 270 264 248 242 238 235 235 232 227 220 219 218 217 213 209 206 205 211 211 216 214 209 200 197 209 231 210 221 230 234 237 237 232 226 225 231
283 278 276 275 273 275 275 275 273 260 245 239 235 233 232 229 216 213 210 212 219 224 222 218 216 217 215 210 203 206 209 218 233 213 224 236 233 240 242 238 233 240 241
283 280 279 278 276 273 276 278 280 269 252 242 240 236 233 231 219 210 208 213 222 227 226 225 223 223 218 208 205 209 214 221 230 232 232 240 235 243 246 243 229 241 248
284 283 281 279 275 273 272 275 279 270 257 249 247 242 234 233 221 211 206 210 218 227 222 226 231 221 211 208 201 190 196 204 224 227 228 232 230 250 253 250 234 235 248
281 281 278 277 274 273 271 270 272 263 257 259 258 250 239 234 221 217 212 208 214 216 206 200 201 197 199 194 200 208 206 208 215 219 203 216 218 226 244 238 240 242 242